Theta_e
305 308 310 305 305 304 304 306 308 309 310 310 311 311 311 312 315 317 320 321 320 318 319 320 323 323 322 318 316 311 311 310 314 318 318 315 319 319 321 323 325 326 329 330 330
307 306 310 311 306 305 305 305 307 308 309 310 310 311 311 312 315 318 322 323 317 317 319 319 320 320 318 316 315 311 309 313 313 317 317 317 319 323 324 326 328 331 330 330 330
313 308 306 310 311 306 305 305 307 308 309 310 311 311 311 312 319 321 324 321 317 317 318 318 319 320 317 317 316 313 312 312 318 318 316 317 320 322 324 325 326 331 330 329 329
314 313 308 309 310 310 306 305 307 308 309 311 311 311 312 314 323 321 320 317 318 319 318 319 320 320 320 321 318 318 315 316 318 318 319 320 321 323 324 324 328 329 329 328 327
315 315 312 308 309 310 308 306 308 310 311 312 313 312 314 320 317 322 316 317 319 319 319 319 319 318 319 319 318 320 320 319 318 318 318 319 322 323 323 327 328 328 328 327 326
315 315 315 311 310 308 308 307 309 311 313 313 313 314 322 322 324 321 320 320 321 321 321 318 319 319 319 321 318 320 321 321 320 319 321 321 322 324 324 327 328 328 328 327 326
314 315 315 315 312 311 307 308 312 314 315 314 314 316 321 317 322 321 321 322 321 321 318 320 320 318 318 319 321 321 320 318 320 320 323 321 322 324 323 325 327 329 329 328 327
314 314 315 315 314 313 310 311 316 316 316 315 314 319 318 323 323 322 321 322 321 320 320 321 320 319 320 319 318 322 317 319 317 321 322 320 321 325 322 325 325 328 329 328 327
314 314 314 315 316 314 315 316 316 316 315 315 317 319 318 323 319 321 320 320 321 320 320 321 319 319 320 320 319 319 320 320 319 319 322 322 326 324 322 323 325 326 329 328 327
314 314 314 315 316 315 315 317 320 317 321 318 320 320 321 324 320 320 320 321 320 320 320 320 317 319 317 318 322 320 320 321 322 321 322 321 321 323 323 323 324 323 328 328 328
313 313 314 315 315 316 315 318 318 321 322 319 317 322 324 325 320 320 320 319 319 320 321 321 320 320 320 319 319 320 320 320 323 322 321 321 322 323 324 323 321 323 325 324 326
313 313 314 314 315 315 315 317 322 319 316 320 321 320 322 324 321 322 320 318 319 320 319 319 321 319 319 319 319 320 321 320 321 320 320 320 320 320 323 322 320 322 324 323 323
314 314 314 315 315 317 316 317 319 321 319 320 321 322 323 320 321 322 318 318 319 318 318 317 320 321 319 319 320 321 322 322 321 319 318 319 318 317 323 325 323 323 322 322 322
314 313 313 313 316 314 316 319 321 319 318 322 322 322 319 319 320 321 319 318 318 320 319 317 318 319 319 322 320 320 318 318 318 316 317 317 317 320 329 329 327 325 324 325 322
312 312 311 310 311 312 318 318 319 320 322 328 323 322 317 319 321 320 320 319 319 318 319 318 319 319 320 320 317 318 316 316 317 316 317 318 319 321 329 329 328 326 325 324 321
311 311 310 310 309 314 315 317 318 322 327 327 321 319 318 320 321 320 321 319 318 319 318 316 318 319 318 317 317 317 317 319 320 316 320 319 321 325 330 328 328 326 324 324 321
311 310 309 309 312 316 316 317 319 325 324 328 322 320 319 321 322 322 322 319 318 319 321 321 319 316 316 316 316 316 319 322 325 323 324 322 327 327 330 328 326 326 325 322 318
311 310 311 311 314 314 317 317 323 325 326 326 323 320 321 320 320 321 321 320 318 320 317 317 321 317 316 315 317 319 317 321 322 322 321 323 331 329 326 324 322 321 319 319 317
310 309 309 315 315 313 316 322 321 323 324 328 326 323 321 321 320 319 320 320 320 318 318 325 323 317 316 316 317 323 325 322 321 327 322 321 330 327 326 326 325 324 321 320 319
305 307 311 316 315 316 318 322 322 325 325 325 325 325 324 322 321 320 321 322 322 319 318 324 324 321 316 315 314 319 322 326 325 327 329 326 330 329 328 327 324 325 323 319 317
305 309 315 315 316 315 319 322 324 324 324 325 326 326 324 324 324 323 322 322 322 318 316 317 318 320 317 316 313 316 316 318 325 324 323 322 325 321 326 324 324 322 322 320 316
303 310 315 315 321 319 322 324 323 325 325 325 325 323 322 324 324 324 323 323 321 318 317 318 317 321 321 319 318 316 318 321 324 326 323 323 324 322 322 322 322 321 321 319 314
300 304 313 318 322 321 322 324 324 324 326 326 326 322 322 322 322 323 324 322 318 319 320 319 318 317 315 313 319 320 320 315 320 319 326 324 324 322 322 321 320 321 319 314 316
302 310 310 312 311 314 315 320 319 323 327 327 327 322 322 323 320 321 323 322 320 321 329 321 318 316 318 320 320 319 320 320 318 323 323 324 323 325 324 323 321 317 316 316 315
304 311 308 309 311 310 314 317 320 325 327 328 327 327 325 324 323 320 321 320 320 328 319 315 319 319 318 321 322 321 320 319 318 319 320 319 320 325 323 321 318 318 317 317 319
308 308 306 308 308 311 314 316 319 319 325 327 328 328 324 324 324 321 323 321 320 320 319 316 320 321 322 323 323 324 323 323 320 319 316 317 324 321 320 317 318 318 318 319 318
305 305 305 308 308 309 316 313 315 316 320 322 326 327 326 325 322 319 318 318 318 319 319 318 321 320 323 325 323 321 323 321 320 325 320 323 322 320 319 318 318 317 319 318 319
Wind_Speed
31 28 19 14 12 12 11 11 10 10 11 12 12 13 15 16 14 9 4 4 5 5 5 9 9 10 8 4 4 4 3 2 4 5 5 8 7 7 8 21 20 15 22 16 26
36 33 26 18 13 12 11 10 10 10 10 11 12 11 13 15 15 11 12 11 8 6 4 5 5 10 3 3 2 4 4 6 5 4 4 6 9 9 10 14 12 17 21 28 35
37 37 34 23 16 12 11 10 9 9 9 9 10 10 10 12 5 6 3 8 6 5 7 7 7 3 4 1 3 3 5 4 2 4 6 4 7 2 15 7 7 12 16 18 29
40 39 37 30 19 14 11 9 8 8 8 8 7 8 11 3 1 4 4 6 4 6 9 6 3 4 2 2 5 4 7 5 5 3 4 5 4 8 13 6 15 15 13 17 16
39 40 39 36 26 16 12 8 7 7 7 7 6 6 2 1 7 7 5 6 6 8 7 1 2 0 2 2 5 2 3 1 6 7 6 5 5 9 10 11 13 15 16 14 11
38 39 39 36 32 21 12 7 7 7 6 5 5 5 1 2 4 7 7 8 9 8 5 1 4 4 2 3 1 2 2 3 2 5 5 6 6 6 6 14 14 16 14 12 12
38 38 38 37 31 24 14 8 7 7 7 5 3 3 1 10 11 9 9 8 8 12 2 7 6 6 4 8 2 1 4 5 3 5 4 5 4 6 8 9 14 15 14 12 9
37 38 38 37 32 26 16 10 9 7 6 2 1 1 5 5 5 15 15 15 11 8 6 6 7 2 2 3 8 4 5 2 6 5 3 6 5 4 8 10 10 14 13 12 8
39 39 38 36 33 27 16 10 8 6 3 1 1 2 8 6 5 12 3 2 12 8 6 6 2 1 5 3 5 5 3 6 6 9 5 4 2 6 7 8 8 10 11 10 7
39 41 39 36 34 28 15 14 8 3 2 2 3 3 5 3 3 6 2 1 2 3 4 2 4 2 3 5 3 4 4 4 5 5 4 4 5 7 7 8 10 9 10 10 8
40 42 41 36 35 25 17 5 6 3 2 6 5 5 6 5 7 4 7 2 2 3 3 3 3 2 5 6 6 3 2 3 1 4 5 5 3 9 9 5 8 10 9 8 9
39 42 44 38 36 17 10 1 6 1 8 11 13 12 16 17 3 2 7 2 2 5 3 4 5 8 5 3 0 3 3 4 3 5 3 2 6 4 8 6 7 10 8 8 5
38 40 43 40 29 5 22 12 25 20 3 8 11 6 6 10 6 7 7 3 4 3 5 5 5 7 4 3 2 3 4 4 2 2 1 2 6 7 5 7 10 6 6 5 6
38 39 41 45 7 26 15 10 22 6 4 7 4 6 5 6 2 5 10 4 3 2 5 2 3 3 1 1 3 3 2 4 5 4 1 4 4 4 4 5 4 5 5 4 5
38 38 38 36 19 9 15 22 24 3 2 5 4 4 8 9 4 1 7 3 3 4 3 6 1 0 4 2 3 4 2 2 2 4 4 3 3 5 2 3 1 2 2 3 4
38 36 38 22 23 24 15 28 4 5 6 3 7 6 6 5 5 4 3 2 2 1 1 6 4 4 5 2 2 1 4 8 6 4 2 5 5 3 3 5 3 4 5 6 6
42 40 38 26 8 10 22 5 4 3 5 5 6 6 9 8 6 7 7 5 4 3 3 5 4 2 4 3 7 4 6 3 4 4 5 4 4 4 3 6 6 5 5 6 6
45 46 30 27 25 12 6 5 3 5 6 5 3 9 10 8 8 9 7 5 5 4 2 2 6 5 3 5 5 4 8 5 4 2 4 5 3 3 2 5 6 6 6 2 6
48 32 20 19 9 13 4 3 7 5 4 5 8 5 6 7 7 10 10 9 8 9 8 3 3 3 5 3 5 1 2 5 6 1 2 2 2 5 4 4 4 1 4 4 5
38 14 14 18 10 13 4 6 6 4 6 6 2 4 4 4 2 7 9 7 7 6 8 7 2 1 2 3 2 4 4 2 3 2 3 4 3 4 6 7 7 3 2 7 5
11 4 3 27 16 4 4 6 5 9 7 3 6 8 8 3 3 2 6 4 6 6 6 6 5 5 5 4 5 2 1 5 5 5 5 1 6 6 10 9 8 7 3 3 5
7 4 13 20 2 1 1 3 3 10 14 8 5 10 7 4 1 1 4 6 5 10 8 2 5 3 7 5 4 6 8 6 5 5 2 4 6 6 8 9 7 6 6 2 4
4 3 10 6 3 4 7 6 5 7 8 5 6 8 5 5 1 4 3 1 10 5 8 6 1 2 8 6 6 2 2 4 3 3 6 5 6 5 6 5 5 5 0 5 3
3 4 4 4 2 2 5 5 7 6 6 7 7 8 3 4 5 4 3 1 4 5 8 9 4 6 7 5 3 4 6 5 5 3 4 6 8 2 4 4 3 4 4 4 7
1 3 2 4 5 7 2 5 6 7 5 8 6 6 3 3 4 6 4 2 4 6 5 5 5 4 4 4 0 2 7 8 3 7 6 8 6 5 6 5 5 5 5 7 5
1 3 4 4 5 6 3 4 11 13 6 3 4 10 8 4 4 7 6 3 5 2 4 2 3 3 2 2 4 4 7 9 8 5 6 4 4 4 5 7 4 4 5 4 5
6 6 3 4 5 4 1 8 17 17 9 6 6 2 5 8 7 7 3 4 8 8 4 5 5 3 3 1 4 4 4 4 5 6 2 3 3 1 5 6 3 3 5 4 6
Wind_Direction
22 17 6 350 340 333 325 316 313 314 317 320 322 334 341 340 336 320 274 255 252 285 310 316 303 317 289 269 210 107 55 323 286 337 296 324 76 40 49 80 69 68 78 89 81
20 18 12 0 344 332 326 314 312 311 312 313 317 333 338 337 331 289 260 271 258 264 289 338 318 343 300 236 316 106 117 229 211 270 66 348 62 67 82 67 61 74 83 79 69
19 17 13 6 354 338 326 316 311 310 309 310 317 331 332 334 343 262 230 224 236 264 291 300 289 213 190 124 238 203 181 202 333 241 42 36 38 86 105 65 89 92 84 74 88
17 16 13 8 357 344 331 319 311 310 308 313 325 330 322 330 245 253 216 222 195 254 289 301 1 321 248 255 241 161 227 191 198 54 46 59 50 54 90 116 119 108 101 83 70
14 12 12 11 4 350 336 324 315 312 309 321 331 336 358 44 251 224 213 195 246 272 261 232 329 247 343 276 328 136 356 226 175 108 128 95 101 116 105 121 113 107 95 99 96
9 9 8 8 7 358 345 333 319 311 308 322 331 339 85 273 226 165 156 209 240 279 282 145 267 219 239 298 136 222 97 359 177 123 164 118 164 99 194 132 118 113 114 112 114
6 5 5 4 4 1 353 338 327 315 305 316 321 343 266 242 195 202 200 234 257 236 282 323 345 49 343 330 312 313 13 8 262 156 169 127 37 156 181 142 133 126 127 126 130
1 359 0 1 360 358 353 341 333 324 314 290 288 318 250 270 261 228 233 249 252 233 252 296 342 34 156 307 357 354 55 20 277 136 215 88 267 244 187 145 148 140 138 136 147
358 356 354 356 354 350 347 336 324 328 342 306 319 164 272 315 217 228 221 19 197 228 224 247 32 204 8 55 1 8 248 222 285 190 151 109 197 240 198 145 168 147 144 147 154
355 353 350 349 350 343 338 322 302 297 303 278 262 348 278 245 189 157 162 216 272 319 339 127 56 33 27 71 245 275 296 312 191 180 129 186 206 205 212 170 172 151 153 158 167
352 351 347 343 345 339 337 339 18 12 167 199 206 245 302 221 158 204 198 283 3 44 245 284 60 256 253 183 207 259 290 308 235 211 118 193 217 196 213 197 158 155 154 162 186
350 347 344 340 342 341 356 51 232 168 297 234 235 235 250 268 260 244 159 137 58 267 343 2 227 222 209 133 95 309 322 338 15 44 89 249 268 251 211 208 168 147 145 166 181
346 345 342 339 338 11 331 286 332 308 293 277 213 209 220 175 196 226 146 173 268 293 295 173 231 180 180 192 184 43 71 16 45 335 21 137 330 2 359 65 107 122 154 154 170
342 342 341 340 351 332 297 327 347 287 26 278 202 229 146 147 243 202 172 132 332 292 318 240 259 137 18 114 154 97 6 45 15 59 273 81 276 345 352 55 42 99 96 47 358
339 339 337 337 308 308 300 328 332 30 352 249 183 197 151 142 173 42 143 93 219 276 49 266 23 274 66 118 94 193 41 42 357 18 21 326 92 304 317 88 185 280 281 335 355
336 334 330 330 304 290 325 329 348 54 257 267 168 160 122 166 191 153 130 112 163 252 265 231 257 172 161 122 130 275 33 23 36 91 358 261 131 267 179 204 247 268 278 300 322
334 328 317 301 249 297 313 2 54 161 305 208 170 147 168 180 181 156 182 178 161 98 292 323 261 164 123 56 1 85 57 349 357 13 221 331 68 256 285 173 183 197 244 262 252
332 326 312 280 270 272 338 56 199 239 244 303 224 178 186 177 215 194 159 191 261 122 131 148 323 167 164 155 186 165 150 149 202 229 274 338 132 242 273 125 131 170 201 290 347
333 328 308 292 256 188 91 132 207 226 257 12 346 174 202 232 196 195 196 196 209 167 164 133 336 53 90 118 118 253 135 171 112 343 54 243 7 328 226 152 187 279 13 344 341
331 322 299 335 178 147 92 216 221 228 358 37 350 327 245 270 185 179 180 202 183 176 139 196 148 242 191 67 327 146 170 66 20 131 249 295 217 224 218 228 230 247 333 334 340
333 340 307 4 152 52 169 219 269 277 304 283 275 289 253 256 162 225 234 247 152 159 110 140 116 274 110 186 174 347 314 64 116 140 166 215 269 216 206 214 203 231 242 277 46
0 328 351 0 63 151 230 230 324 297 310 296 270 269 201 157 276 272 258 215 168 140 140 123 131 184 224 251 226 179 190 150 130 230 211 160 265 238 212 199 191 235 233 261 53
336 273 338 343 52 344 332 323 306 297 305 269 245 245 209 175 149 227 156 308 130 106 154 174 56 51 340 354 8 71 209 157 114 83 194 149 259 348 106 136 220 199 250 76 94
9 343 328 34 47 54 360 305 328 300 292 336 282 213 171 198 182 236 121 156 106 121 116 99 120 152 183 194 198 300 317 307 142 128 223 218 255 143 171 159 122 109 124 88 79
88 280 338 332 335 334 296 268 311 327 12 358 334 23 81 312 226 199 157 97 38 148 77 104 151 157 193 208 275 286 300 303 230 232 170 248 213 178 183 104 119 92 57 54 65
47 42 346 287 298 333 350 309 321 355 307 319 357 319 38 60 283 238 154 131 178 240 104 38 161 119 289 317 320 317 296 297 285 295 245 166 67 186 118 107 83 55 61 87 54
348 345 111 277 318 356 258 2 314 320 286 211 186 354 1 354 327 328 348 126 159 148 133 121 130 98 254 331 16 318 224 316 297 10 259 80 141 61 89 96 78 73 112 68 85